GFSFLT2_850_temp_273.txt.gz
Temp
23 22 21 21 21 21 21 21 21 20 20 20 20 20 20 20 20 20 20 20 19 19 18 18 18 18 17 17 17 17 17 16
23 22 22 21 20 20 21 21 21 20 20 20 20 20 20 20 20 20 20 20 19 19 18 18 18 18 17 17 17 17 17 17
22 22 22 22 21 20 20 20 20 21 20 20 20 20 20 20 20 20 20 19 19 19 19 18 18 18 17 17 17 17 17 17
22 22 22 22 21 21 20 20 20 20 20 20 20 20 20 20 20 20 19 19 19 19 19 18 18 18 18 17 17 17 17 17
22 22 22 22 21 21 21 20 20 20 20 21 21 20 20 20 20 20 19 19 19 19 19 19 19 18 18 18 17 17 17 17
23 22 22 21 21 21 21 21 21 21 21 21 21 20 20 20 20 20 19 19 19 19 19 18 18 18 18 18 17 17 17 17
24 23 22 21 21 21 21 21 21 21 21 21 21 21 20 20 20 19 19 19 19 18 18 18 18 18 17 17 17 17 17 17
24 23 22 22 22 21 21 21 21 21 21 21 20 20 20 20 20 19 19 19 18 18 18 18 17 17 17 17 17 17 17 17
24 24 23 23 22 22 22 21 21 21 21 21 20 20 20 19 19 19 19 18 18 18 17 17 17 17 17 17 17 17 17 17
24 24 23 23 24 23 22 22 21 21 21 20 20 20 19 19 19 19 19 18 18 17 17 17 17 17 17 17 17 17 17 17
24 24 24 24 24 23 23 22 22 22 21 21 20 20 19 19 19 19 18 18 17 17 17 17 16 17 17 16 17 17 17 17
25 24 24 24 24 23 22 22 22 22 22 21 21 20 19 19 19 19 18 18 17 17 17 17 16 16 16 16 17 17 17 18
24 24 25 23 22 23 23 23 24 23 23 22 21 20 19 19 19 20 18 18 17 17 16 16 16 16 16 16 17 17 18 18
24 24 23 22 22 23 23 23 23 23 22 22 22 21 19 20 18 20 17 17 17 17 16 16 16 16 16 15 14 16 18 18
25 25 24 22 21 20 20 19 19 21 22 22 21 19 18 20 18 20 20 18 17 15 16 16 16 16 15 15 15 15 16 15
23 24 24 22 21 20 21 22 21 23 21 20 18 17 17 18 19 19 19 18 18 15 15 16 15 15 15 15 16 16 15 15
20 22 22 21 20 20 20 20 21 18 18 17 17 16 17 17 18 18 18 17 18 15 15 16 16 15 15 15 15 15 14 14
19 20 21 21 21 20 19 19 19 17 16 16 16 17 16 16 17 18 17 15 15 15 15 15 15 15 15 15 14 13 14 13
17 18 19 21 20 19 18 18 17 16 16 17 17 16 15 15 15 15 15 17 15 15 16 15 15 15 14 13 13 13 13 12
15 16 16 18 19 16 16 16 16 15 15 15 15 15 15 14 17 16 15 15 15 16 15 14 14 14 13 12 12 11 11 11

GFSFLT2_850_temp_276.txt.gz
Temp
23 22 22 22 22 21 21 21 21 21 20 20 20 20 20 19 19 19 19 19 19 19 19 18 18 18 18 18 18 17 17 16
23 22 22 22 22 21 21 21 20 20 20 20 20 20 19 19 19 19 19 19 19 18 18 18 18 18 18 18 18 18 17 15
22 22 22 21 21 21 21 21 20 20 20 20 20 19 19 19 19 19 19 19 19 18 18 18 18 18 18 18 17 17 15 16
22 21 20 21 20 20 21 20 20 20 20 20 19 19 19 19 19 19 18 18 18 18 18 18 18 17 16 17 17 16 15 16
22 22 20 19 18 18 18 19 20 19 20 19 19 19 18 18 18 19 19 18 18 18 18 18 17 15 16 15 15 15 15 16
20 19 22 21 18 17 17 17 17 18 18 20 18 18 16 17 16 16 19 17 18 17 15 16 16 16 16 15 15 16 16 16
21 19 22 22 22 18 17 17 17 17 17 18 19 16 16 16 17 16 16 16 16 17 16 15 15 17 17 16 17 17 17 16
20 21 23 22 22 22 19 19 17 16 16 16 19 19 17 16 17 16 16 16 16 16 15 15 15 15 15 16 16 15 15 16
21 24 23 23 23 22 22 20 19 18 17 17 18 20 19 18 18 17 16 16 17 16 17 16 15 15 15 16 15 16 15 17
22 21 21 23 24 23 22 22 21 21 19 18 19 20 20 19 19 18 18 17 16 17 15 15 15 15 15 15 16 15 15 17
22 21 19 22 23 23 23 22 22 22 21 19 20 21 20 19 18 16 18 18 18 17 15 15 15 15 15 15 15 15 16 16
22 21 20 21 20 20 21 22 22 22 22 22 21 20 20 19 18 18 18 18 16 15 17 15 14 15 15 16 16 15 15 16
19 21 20 19 18 18 19 22 23 21 21 21 19 20 19 20 20 19 18 18 18 16 17 17 16 16 16 14 15 15 15 16
18 17 19 21 19 18 18 20 18 19 19 19 19 17 19 20 20 20 21 20 18 18 17 17 16 15 15 15 15 17 17 16
21 21 20 21 21 19 17 16 16 17 18 17 17 17 17 18 19 20 19 19 19 20 19 18 17 16 16 15 15 16 19 18
18 20 21 20 19 18 17 17 16 17 17 17 16 14 14 15 17 19 19 19 20 19 19 17 17 17 15 16 15 15 17 18
14 17 18 19 19 19 17 16 16 17 17 17 16 14 14 17 17 17 18 18 19 19 19 17 17 17 16 14 15 15 14 14
14 17 17 17 18 18 17 17 15 16 17 16 15 15 15 16 14 14 14 16 15 18 18 17 17 17 14 14 14 14 14 14
11 14 15 16 15 16 15 15 15 15 16 16 15 15 15 14 14 14 14 13 14 15 16 16 14 14 14 14 14 14 13 13
11 12 13 14 15 15 15 15 15 15 15 15 16 15 15 15 15 15 13 13 11 14 15 14 14 14 14 13 14 13 13 12

GFSFLT2_850_temp_279.txt.gz
Temp
21 23 22 22 22 22 22 22 21 21 21 20 20 20 20 20 19 19 19 19 19 19 18 18 18 18 18 18 18 18 18 16
19 23 22 22 22 21 21 21 21 21 21 20 20 19 19 19 19 19 19 18 18 18 18 18 18 18 18 18 18 18 18 17
20 20 22 22 22 21 21 20 20 20 20 20 20 19 19 19 19 19 18 18 18 18 18 18 18 18 18 18 18 18 17 16
21 19 18 20 19 19 20 20 20 20 20 20 19 19 18 16 18 19 19 18 18 18 18 18 18 18 17 17 17 18 16 17
22 20 19 19 18 19 18 19 19 20 20 20 19 19 18 16 16 16 18 18 18 18 18 18 18 18 16 17 16 17 16 17
24 22 20 19 19 19 19 18 17 18 18 19 19 17 17 17 17 17 16 16 18 16 16 18 18 17 16 17 17 17 17 17
26 24 22 20 19 20 19 19 19 18 18 17 18 17 17 17 17 17 17 17 16 16 16 16 15 15 15 16 16 16 16 16
26 24 22 20 20 20 19 19 19 19 18 18 17 17 17 17 16 16 17 17 17 17 16 17 17 16 16 16 16 16 16 16
26 24 22 21 19 19 20 19 19 19 18 18 17 17 18 17 16 16 16 17 17 17 17 17 17 17 17 17 16 16 15 16
25 24 23 20 19 18 18 18 19 18 18 18 18 17 17 18 17 17 17 17 16 16 16 16 16 17 17 17 17 17 16 16
23 24 23 22 19 18 18 18 18 19 18 18 18 17 17 17 18 17 16 16 16 16 16 16 17 17 17 17 17 17 17 17
20 20 21 21 21 19 18 18 17 17 17 18 18 18 17 17 17 17 16 16 17 16 16 16 16 17 17 18 17 17 17 17
18 18 17 18 19 20 19 17 18 17 17 17 17 17 16 16 17 17 16 17 18 18 19 18 17 16 16 16 16 16 16 17
16 17 16 16 17 18 20 19 19 18 17 17 17 16 16 16 16 16 16 17 19 20 19 20 20 19 17 15 15 16 16 17
15 15 14 14 15 16 17 19 19 18 17 17 17 16 16 16 15 15 15 17 17 19 18 20 19 20 17 16 16 16 17 17
15 14 13 14 14 15 15 16 18 19 18 18 17 17 16 15 15 14 14 15 16 19 18 17 17 17 15 16 16 16 16 18
14 14 13 14 16 15 15 15 16 17 18 17 18 18 17 16 15 14 14 14 14 15 15 17 15 14 16 17 16 16 14 16
13 14 12 14 14 14 14 15 15 16 16 17 17 18 17 16 16 14 14 14 13 13 13 14 14 14 15 15 16 15 17 16
13 13 12 13 12 13 13 14 15 15 15 16 17 17 16 16 15 14 14 14 14 14 14 14 14 14 14 14 14 14 14 14
12 13 11 12 11 11 12 13 13 15 15 15 15 16 15 15 15 15 14 14 14 14 14 14 13 11 13 13 12 13 13 13

GFSFLT2_850_temp_285.txt.gz
Temp
24 24 24 23 23 22 22 22 21 21 21 20 20 20 20 20 20 20 19 19 19 19 19 18 18 18 19 18 18 18 18 18
24 23 23 23 23 23 22 22 22 21 21 20 20 20 20 20 20 20 20 20 19 19 19 19 19 19 18 18 18 18 19 18
26 25 24 24 23 23 23 22 22 21 21 21 20 20 20 20 20 20 20 20 19 19 19 19 19 19 19 18 18 19 18 18
26 25 25 24 24 24 23 22 22 22 22 21 21 21 20 20 20 20 20 20 20 19 19 19 19 19 19 19 19 19 18 18
26 26 25 24 23 23 23 23 22 22 22 21 21 21 21 21 20 20 20 19 19 19 19 19 19 19 19 19 19 19 19 18
24 25 25 25 23 23 23 23 23 22 22 22 21 21 21 21 21 21 20 20 20 20 20 20 20 20 19 19 19 19 18 18
21 20 22 24 24 22 23 23 23 23 22 21 21 21 21 21 21 20 21 20 20 20 20 20 20 20 20 19 19 19 19 18
19 20 20 21 22 22 22 22 22 21 21 21 20 20 20 20 20 20 20 20 20 20 20 20 20 19 19 19 19 19 19 18
19 19 18 17 17 17 18 20 21 21 20 20 20 19 19 19 20 20 20 19 19 19 18 18 18 19 19 18 18 18 18 18
18 18 17 17 16 17 17 18 18 19 20 19 19 19 19 18 19 19 19 18 18 17 17 17 17 17 18 18 18 18 18 18
18 16 15 16 17 17 16 18 18 18 19 19 19 18 18 18 17 18 18 18 17 17 17 17 17 17 18 18 17 17 18 17
17 16 14 14 15 16 17 16 16 16 16 17 18 18 18 18 18 18 17 17 17 17 17 17 17 17 17 17 17 17 17 18
15 14 13 13 13 14 15 15 17 17 17 17 17 17 17 18 18 18 17 17 17 17 17 16 17 17 17 16 17 19 18 18
14 14 13 12 12 12 13 14 15 15 15 16 16 16 17 17 17 17 17 17 16 16 16 16 16 17 16 16 15 16 16 17
13 12 12 12 12 12 13 14 15 16 17 16 16 16 16 16 17 18 17 17 16 16 16 16 15 15 16 16 15 16 16 17
12 12 12 11 11 11 11 10 11 12 11 12 14 15 16 16 16 17 17 17 17 16 15 15 15 15 14 15 16 17 17 17
12 12 12 10 10 9 10 11 10 9 9 10 11 13 14 14 15 15 15 16 17 16 15 15 15 15 15 15 15 16 16 14
12 12 11 10 10 10 9 9 9 10 9 9 9 10 11 12 13 13 14 14 15 16 17 16 15 14 14 14 14 14 14 14
10 10 11 12 9 9 9 8 8 7 7 7 8 8 9 11 12 11 11 12 14 14 16 16 15 14 14 14 14 14 14 14
9 9 10 9 8 6 6 6 7 7 6 6 6 7 7 7 9 11 10 9 12 12 14 14 14 14 14 13 13 13 13 13

GFSFLT2_850_temp_291.txt.gz
Temp
24 23 22 22 22 21 21 21 21 21 20 20 20 20 20 20 20 20 19 19 19 19 19 19 19 18 18 18 18 18 18 17
22 22 22 21 21 20 19 19 19 20 20 20 19 19 19 19 20 20 20 20 19 19 19 19 19 19 19 18 18 18 18 18
22 22 21 21 20 20 20 19 19 18 18 18 18 19 19 19 19 19 19 19 19 19 19 19 19 19 19 19 18 18 19 19
20 20 20 21 21 20 20 19 19 18 18 17 17 17 18 18 19 19 19 19 19 19 19 18 18 19 19 19 19 20 19 19
19 20 20 20 19 19 20 20 19 19 18 17 17 17 17 17 17 18 18 18 19 19 19 19 19 19 19 19 19 19 19 20
19 20 20 18 17 17 17 17 17 17 18 18 17 17 16 16 16 16 17 17 18 19 19 19 19 19 19 19 19 19 19 19
17 16 16 15 15 15 14 14 14 14 14 15 15 16 16 16 16 16 16 16 16 18 19 18 18 18 18 19 19 19 19 19
14 15 15 15 15 15 15 15 15 14 13 14 14 14 16 15 15 15 15 16 16 16 17 18 18 18 18 18 18 18 18 19
14 14 15 15 15 15 16 15 16 16 14 14 13 13 14 14 14 13 13 12 13 14 15 15 17 18 18 18 18 18 18 19
15 15 15 15 14 14 15 14 15 15 15 15 13 13 13 13 12 14 14 11 12 13 13 14 14 15 16 18 18 18 18 18
15 14 15 15 15 15 14 14 14 14 15 15 15 14 12 12 13 12 14 12 12 13 13 12 12 13 14 15 17 17 18 18
14 14 14 14 14 13 13 13 14 14 14 14 14 15 14 14 13 12 12 11 12 13 13 13 13 13 13 13 15 15 16 17
13 14 13 13 13 13 13 12 12 13 12 12 12 12 13 13 14 13 11 12 13 13 14 14 13 13 12 13 12 13 14 16
12 12 12 12 12 12 12 11 9 9 10 9 8 9 9 10 10 13 13 10 11 13 13 13 13 13 13 13 13 13 13 15
12 11 11 11 11 11 11 11 10 9 9 7 6 6 6 7 7 8 10 12 10 11 12 13 13 13 13 13 13 13 15 15
10 10 10 10 10 10 9 9 9 7 5 6 6 6 4 5 6 7 7 9 10 11 12 12 13 13 13 13 14 14 14 15
10 10 9 9 9 9 9 9 9 7 5 6 5 5 4 4 5 5 5 5 7 10 10 11 11 12 13 13 13 13 13 13
10 9 9 9 8 8 8 7 7 4 1 3 3 2 3 3 3 4 4 4 5 7 8 8 10 10 11 13 13 13 13 12
8 8 8 7 7 7 6 5 4 1 -0 -0 -0 0 2 2 2 3 3 3 4 5 7 7 7 9 10 11 12 12 12 12
7 7 7 7 6 6 5 4 2 1 -0 -1 -1 -1 0 0 1 2 -0 2 3 3 4 5 5 7 8 8 9 10 10 10

GFSFLT2_850_temp_297.txt.gz
Temp
19 19 18 18 18 18 18 17 17 17 17 17 17 17 17 18 18 18 17 17 16 16 16 16 16 16 16 16 16 16 16 16
18 19 19 19 18 17 17 17 17 17 17 17 17 17 16 15 16 17 17 17 17 16 16 16 16 16 15 15 15 15 15 15
16 16 16 16 16 16 16 17 17 17 17 17 16 17 17 17 17 15 15 15 16 16 16 16 16 16 15 15 15 15 15 15
15 15 15 15 15 15 15 15 15 16 16 16 16 15 14 15 15 18 18 16 17 16 16 16 16 16 16 16 15 15 15 15
15 15 15 15 15 15 15 15 16 15 15 15 15 16 16 16 15 17 17 17 15 17 17 16 15 15 15 15 16 16 16 16
15 15 15 15 15 16 16 16 16 16 16 16 16 16 15 15 15 15 16 16 15 13 13 15 17 16 15 15 15 15 15 16
15 15 15 15 15 15 15 15 14 14 14 14 15 15 16 15 14 13 13 14 14 14 13 13 14 15 15 15 15 15 15 15
13 13 12 12 12 12 12 13 13 13 13 13 13 14 14 14 14 12 12 12 12 13 13 13 15 15 15 16 16 16 15 15
12 12 12 12 11 11 11 11 11 11 12 11 12 12 12 12 12 12 9 10 11 12 12 13 16 11 12 12 14 16 16 16
12 12 12 11 11 11 11 10 10 10 10 11 11 10 10 11 11 11 11 10 10 10 11 12 12 12 11 11 11 14 16 16
11 11 11 11 11 10 10 10 10 10 10 10 9 9 9 8 9 10 10 10 9 8 10 11 11 11 11 11 11 11 15 15
10 10 10 10 10 10 9 9 9 9 9 8 8 8 8 8 7 7 7 8 8 7 7 9 10 10 10 11 11 11 12 12
10 9 8 8 8 8 8 7 7 7 8 8 8 7 6 6 5 5 4 3 3 3 5 6 8 9 10 11 11 12 12 11
8 8 7 7 7 7 7 6 5 4 3 4 5 6 4 4 3 3 2 2 2 4 4 4 6 6 7 9 11 11 12 11
7 6 6 6 6 5 6 5 5 4 3 2 2 1 -1 -0 0 2 2 2 2 2 3 3 3 6 6 6 10 12 13 13
5 5 4 3 3 4 4 4 2 1 0 -1 -2 -2 -2 -2 -2 -1 -1 -0 -0 -0 1 2 1 4 6 7 7 8 11 13
3 3 3 2 1 1 3 2 -0 -1 -1 -1 -2 -2 -2 -1 -2 -1 -1 -2 -1 -1 -1 1 0 2 2 5 7 8 11 11
2 2 1 1 1 -0 -0 0 -1 -1 -2 -4 -3 -3 -3 -3 -3 -3 -3 -3 -3 -2 -2 -1 -1 -0 1 3 3 4 7 7
0 -1 -1 -1 -1 -1 -1 -2 -2 -3 -4 -5 -4 -4 -4 -5 -4 -4 -4 -4 -4 -3 -3 -3 -3 -3 -1 1 2 2 3 6
0 -0 -1 -1 -1 -3 -3 -3 -3 -4 -5 -5 -5 -6 -6 -6 -5 -5 -5 -5 -5 -4 -4 -4 -5 -4 -3 -2 0 1 2 3

GFSFLT2_850_temp_303.txt.gz
Temp
15 15 14 14 14 15 15 15 15 15 15 15 15 15 16 16 16 16 16 16 17 16 16 18 18 19 19 18 18 18 17 17
15 15 15 15 14 15 15 15 15 14 14 14 15 14 15 15 15 15 15 15 16 15 15 15 16 16 16 17 18 18 18 17
14 14 14 14 15 14 14 13 13 13 13 15 13 13 14 14 14 14 14 14 14 14 14 15 14 15 16 16 15 17 18 18
14 13 12 14 14 14 13 13 13 12 12 14 12 12 12 12 12 13 14 13 13 13 13 14 14 14 14 15 15 15 15 17
14 12 12 12 13 13 13 13 12 12 11 10 10 12 11 11 11 12 11 12 13 13 13 13 13 14 13 14 15 15 15 16
13 12 11 11 11 11 11 11 11 11 11 9 9 10 9 10 9 10 10 11 10 11 13 13 13 13 13 13 14 14 14 15
12 11 10 10 10 10 10 10 10 10 10 9 7 10 9 9 8 8 9 9 9 9 9 11 12 12 13 12 13 14 14 14
11 11 9 9 9 9 9 9 9 9 9 8 6 7 6 6 7 6 7 7 6 7 8 9 9 11 11 12 12 12 13 13
10 10 8 8 8 8 9 9 8 8 8 7 5 4 4 4 4 4 4 6 5 5 7 8 8 8 8 10 11 12 12 12
10 8 7 6 7 7 7 7 7 7 7 6 4 3 3 2 2 1 1 2 2 3 4 5 5 6 6 7 9 10 11 12
8 7 6 5 6 6 6 6 6 6 5 4 2 2 1 1 -0 0 0 -1 -0 0 0 1 1 2 4 4 5 7 11 11
7 6 4 4 4 5 5 5 5 5 3 2 1 0 -1 0 -1 -1 -2 -2 -1 -1 -1 0 0 1 1 2 4 6 7 11
5 4 2 2 3 3 3 3 4 3 2 0 -1 -2 -2 -0 -2 -1 -2 -2 -3 -2 -1 -1 -1 -1 0 3 5 8 9 10
3 2 2 1 1 2 1 2 2 1 -0 -1 -2 -3 -3 -3 -3 -3 -3 -3 -4 -4 -3 -3 -3 -2 -1 -0 3 6 9 10
2 2 1 -0 -1 -0 -0 -0 -0 -1 -1 -2 -4 -4 -4 -5 -5 -5 -5 -5 -4 -5 -4 -4 -4 -4 -4 -3 -0 3 1 5
2 1 -0 -2 -2 -2 -2 -2 -2 -2 -3 -4 -5 -5 -5 -5 -6 -6 -6 -6 -6 -5 -5 -5 -5 -5 -5 -4 -2 -3 -2 0
-0 -0 -2 -2 -3 -4 -4 -3 -3 -3 -4 -5 -6 -6 -6 -6 -6 -6 -6 -7 -7 -6 -6 -6 -6 -5 -5 -5 -5 -4 -2 -2
-1 -1 -2 -3 -3 -3 -4 -4 -3 -3 -3 -4 -6 -7 -7 -7 -7 -7 -6 -7 -7 -7 -6 -6 -6 -6 -6 -6 -6 -5 -5 -4
-1 -2 -2 -3 -3 -4 -4 -4 -3 -3 -4 -4 -7 -8 -8 -8 -8 -7 -7 -7 -7 -7 -7 -7 -7 -7 -6 -6 -6 -6 -6 -5
-2 -2 -3 -3 -4 -5 -5 -4 -4 -4 -5 -5 -6 -8 -8 -8 -8 -8 -7 -8 -8 -8 -7 -7 -8 -7 -7 -6 -6 -6 -7 -6

GFSFLT2_850_temp_309.txt.gz
Temp
15 14 14 13 13 13 13 13 13 15 15 14 14 14 13 12 12 12 11 12 12 12 12 12 13 13 13 14 15 15 15 15
15 15 15 14 13 13 13 13 12 11 11 12 13 12 12 13 12 12 11 11 11 11 10 10 11 12 13 13 13 13 14 15
13 14 13 13 12 11 10 10 10 9 9 9 9 10 10 10 10 10 10 10 10 10 9 9 9 10 10 12 13 13 13 14
12 11 11 11 10 10 9 9 9 9 8 8 8 8 8 8 8 9 9 9 9 9 9 9 9 10 10 10 11 12 12 13
11 10 10 10 9 9 8 8 8 8 7 7 7 7 7 7 7 7 7 8 8 8 8 8 8 8 9 10 8 9 10 12
10 10 10 10 9 8 7 7 7 7 6 6 6 6 6 6 6 5 6 6 7 7 7 7 7 8 8 8 8 8 8 9
9 10 9 8 7 7 7 6 6 5 5 5 5 5 5 4 4 4 5 5 5 5 5 6 6 6 7 7 7 8 8 9
8 8 8 7 6 5 5 5 5 4 4 4 5 4 4 4 2 2 2 3 3 3 2 4 4 4 5 5 6 7 8 8
8 8 7 6 5 4 4 4 3 3 3 4 3 3 3 2 2 1 -1 0 1 1 1 0 2 2 3 4 5 6 8 8
7 7 6 6 4 4 3 3 2 2 2 2 2 1 1 1 0 -1 -3 -4 -4 -4 -4 -3 -2 -3 0 2 4 4 6 8
5 5 5 5 5 4 4 2 1 1 1 0 0 -1 -0 -1 -3 -4 -5 -5 -5 -5 -6 -6 -5 -5 -4 -1 2 3 5 6
4 4 5 4 4 3 2 1 -0 -0 -1 -1 -1 -2 -2 -6 -5 -5 -5 -5 -5 -6 -6 -6 -5 -5 -5 -4 -1 2 3 3
3 3 3 3 2 1 1 -1 -2 -2 -3 -3 -3 -4 -4 -6 -5 -5 -6 -6 -6 -6 -6 -6 -5 -5 -5 -4 -2 0 -1 -0
3 1 1 1 0 0 -1 -2 -2 -3 -3 -3 -3 -4 -4 -5 -6 -6 -6 -6 -6 -6 -7 -6 -6 -6 -6 -5 -4 -2 0 1
1 1 0 -2 -2 -2 -2 -3 -3 -3 -4 -4 -4 -5 -5 -5 -5 -6 -7 -7 -7 -7 -7 -7 -7 -6 -6 -5 -6 -5 -5 -2
1 -0 -1 -2 -2 -3 -3 -4 -4 -4 -4 -5 -5 -6 -6 -6 -6 -7 -7 -8 -7 -7 -8 -7 -7 -8 -7 -7 -6 -6 -6 -5
1 -1 -2 -2 -3 -4 -4 -4 -4 -4 -4 -5 -6 -6 -7 -7 -7 -7 -8 -8 -8 -7 -8 -8 -8 -8 -8 -7 -7 -6 -6 -6
-0 -2 -2 -2 -3 -4 -4 -4 -5 -5 -5 -6 -6 -7 -7 -7 -8 -8 -8 -8 -8 -8 -8 -8 -8 -8 -8 -8 -8 -7 -7 -7
-1 -2 -2 -3 -4 -4 -5 -5 -5 -5 -6 -6 -7 -7 -7 -8 -8 -8 -9 -9 -9 -9 -8 -8 -8 -8 -8 -8 -8 -8 -7 -7
-2 -2 -3 -4 -4 -4 -4 -5 -6 -6 -6 -7 -7 -7 -8 -8 -8 -8 -9 -9 -9 -9 -9 -8 -8 -8 -8 -8 -8 -8 -8 -8

GFSFLT2_850_temp_315.txt.gz
Temp
13 13 12 12 11 11 11 11 10 10 9 9 8 8 8 8 8 9 9 9 9 9 10 10 10 10 9 10 11 11 12 12
12 12 11 11 10 9 9 8 8 8 8 7 7 7 7 7 7 7 7 8 8 8 8 9 9 9 9 9 10 9 10 10
11 11 11 10 9 8 8 7 7 7 7 7 7 7 7 7 7 7 7 7 8 8 8 8 8 8 8 9 9 9 10 9
10 10 10 9 8 8 8 8 8 7 7 7 6 6 6 6 6 6 7 7 7 7 7 7 8 8 8 9 8 8 8 9
10 9 8 8 8 8 8 7 7 7 6 6 5 6 5 5 5 6 6 6 7 7 7 6 6 6 7 7 7 7 7 8
9 8 8 8 7 7 7 7 5 5 4 4 4 4 4 4 3 3 3 3 4 4 5 4 4 4 5 5 6 6 6 7
8 8 8 7 7 7 6 5 5 4 3 2 2 2 2 1 1 1 0 1 1 2 2 3 3 2 2 3 4 5 4 5
8 8 7 6 6 5 4 4 3 2 1 0 0 0 0 -0 -0 -0 -1 -1 -1 -2 -1 0 1 0 -0 -0 1 3 4 4
8 7 6 6 5 4 3 2 1 1 0 -0 -0 -1 -1 -1 -2 -2 -2 -3 -2 -2 -2 -2 -1 -1 -0 -0 -1 1 2 3
7 6 6 5 4 3 2 1 1 -0 -1 -2 -2 -2 -2 -2 -2 -2 -3 -4 -4 -3 -4 -3 -4 -4 -3 -1 -0 -1 -1 -0
7 6 6 5 4 3 1 0 -1 -2 -2 -2 -2 -2 -3 -3 -3 -4 -4 -4 -5 -4 -3 -4 -6 -6 -6 -3 -1 -2 -3 -3
6 5 5 4 3 2 1 -1 -1 -2 -2 -3 -4 -4 -5 -4 -4 -4 -4 -4 -5 -5 -4 -4 -7 -7 -6 -4 -2 -3 -5 -5
5 5 3 3 2 1 -0 -2 -2 -2 -3 -4 -5 -6 -6 -5 -5 -5 -5 -5 -6 -6 -6 -6 -7 -8 -7 -4 -5 -4 -5 -4
4 3 2 1 -0 -1 -2 -2 -3 -4 -5 -5 -5 -5 -6 -6 -6 -6 -6 -6 -5 -6 -7 -8 -7 -8 -8 -8 -7 -6 -5 -5
3 2 1 0 -1 -1 -1 -2 -3 -4 -5 -5 -6 -6 -6 -6 -6 -6 -6 -6 -7 -7 -8 -8 -9 -8 -8 -8 -8 -8 -8 -5
2 2 0 -1 -1 -2 -3 -4 -5 -6 -6 -6 -6 -7 -7 -7 -6 -6 -7 -6 -7 -8 -8 -8 -9 -9 -9 -8 -8 -8 -9 -8
2 1 -1 -2 -3 -4 -4 -5 -5 -6 -6 -6 -6 -6 -7 -7 -7 -7 -7 -6 -7 -8 -8 -8 -8 -8 -9 -9 -8 -8 -8 -9
2 -0 -1 -2 -3 -4 -4 -5 -5 -6 -6 -7 -7 -7 -7 -7 -7 -7 -7 -7 -8 -8 -8 -8 -8 -8 -9 -9 -9 -9 -9 -9
0 -1 -2 -3 -4 -4 -4 -5 -5 -6 -7 -7 -7 -7 -7 -8 -8 -7 -7 -7 -7 -8 -8 -8 -8 -8 -9 -9 -9 -9 -9 -9
-1 -2 -3 -3 -4 -4 -5 -5 -6 -6 -7 -7 -8 -8 -8 -8 -8 -8 -7 -7 -7 -8 -8 -8 -8 -9 -9 -9 -10 -9 -9 -8